Simultaneous Nadir Overpasses (SNOs) Predictions

Prediction of SNOs between AQUA and GOES-15 Satellite Orbit:

Table of predicted SNOs for the next 14.0 days since TLE Epoch: 8/16/2019
Index Date Time (AQUA) AQUA Lat,Lon GOES-15 Lat,Lon Distance(km) Time Diff (sec)
1 08/17/2019 21:58:00 0.93,-125.77 0.33,-128.43 303.50 80
2 08/18/2019 10:19:16 0.17,-130.92 -0.34,-128.46 280.05 80
3 08/20/2019 10:07:05 -0.47,-127.97 -0.34,-128.46 56.28 80
4 08/22/2019 09:54:54 -1.10,-125.02 -0.34,-128.46 391.89 80
5 08/22/2019 22:16:18 -0.00,-130.21 0.35,-128.43 202.19 80
6 08/24/2019 22:04:07 0.63,-127.26 0.36,-128.42 132.44 80
7 08/25/2019 10:25:23 0.46,-132.42 -0.37,-128.44 451.15 80
8 08/26/2019 21:51:56 1.26,-124.30 0.36,-128.40 466.18 80
9 08/27/2019 10:13:12 -0.18,-129.46 -0.37,-128.42 117.63 80
10 08/29/2019 10:01:00 -0.75,-126.50 -0.38,-128.40 215.48 80
11 08/29/2019 22:22:25 -0.30,-131.70 0.38,-128.36 379.62 80




NCC Satellite Simultaneous Nadir Overpasses (SNOs) Prediction Service
